Wind_Speed
21 21 21 20 20 20 19 19 18 18 17 17 17 17 17 17 17 16 17 17 17 17 17 17 17 18 18 19 19 19 20 20 21 21 22 22 22 23 24 24 24 25 25
22 22 22 22 22 21 21 20 20 20 20 19 19 19 19 19 19 19 19 19 18 18 18 18 19 19 20 21 21 21 22 23 23 24 24 25 26 27 27 28 28 29 29
24 24 24 24 24 23 22 22 21 21 21 21 20 21 21 21 21 21 21 21 20 20 20 20 21 21 22 22 23 23 24 25 26 26 27 28 29 30 30 31 31 32 32
26 26 26 26 25 25 24 24 24 23 23 23 23 23 23 23 23 23 23 23 23 23 23 23 23 23 24 24 25 25 26 28 29 29 30 31 31 32 33 33 34 35 36
27 27 27 27 27 26 26 26 25 25 25 25 25 25 25 25 26 26 26 26 26 26 26 26 25 25 26 26 27 27 28 30 31 32 33 34 34 35 35 36 37 39 39
28 29 28 28 28 27 26 26 27 27 27 28 28 28 28 28 28 28 28 28 29 29 29 28 28 28 28 29 29 30 31 31 33 34 35 37 37 38 39 40 41 42 42
29 30 29 30 30 29 29 29 29 29 30 30 30 30 29 29 29 30 30 31 31 31 31 31 32 31 32 32 33 33 35 35 35 36 38 39 40 41 43 44 45 46 47
32 32 32 32 31 31 31 31 31 31 32 31 31 30 30 30 30 31 32 33 33 34 34 33 34 34 35 36 36 36 37 38 38 39 41 43 44 44 45 46 48 49 49
33 34 33 33 33 33 32 32 33 33 32 33 32 31 31 32 32 32 33 33 34 34 35 35 36 37 38 38 39 40 40 42 43 44 45 46 46 47 48 50 51 52 53
32 34 34 33 33 33 33 34 34 33 32 33 32 32 32 32 33 33 33 33 35 36 37 37 38 39 40 41 42 42 43 44 46 47 48 49 51 52 53 53 54 56 57
32 33 34 35 35 35 36 37 36 35 34 34 34 33 34 34 35 35 35 35 36 37 38 38 39 41 42 43 45 46 46 48 50 51 52 53 54 54 55 55 57 58 59
32 34 34 35 36 36 36 37 36 36 35 34 34 33 32 33 33 34 34 34 35 37 38 39 41 43 45 47 48 49 50 52 53 54 55 56 57 57 57 58 59 60 61
31 33 32 33 34 34 35 35 34 34 33 31 32 33 33 33 33 35 35 37 38 40 41 42 44 46 47 50 51 53 54 55 56 57 58 58 59 59 60 60 61 61 62
26 27 29 30 30 30 30 31 32 31 30 30 31 33 34 35 36 37 39 40 42 43 44 46 47 48 50 52 54 55 57 57 58 59 60 61 62 63 62 62 62 61 62
24 25 25 27 28 28 28 27 28 29 30 31 32 33 35 36 38 39 41 42 43 45 47 48 50 51 52 54 55 57 58 59 60 61 62 63 63 63 63 62 62 61 61
22 24 25 26 28 29 27 27 28 29 30 32 34 35 36 38 39 41 42 44 45 47 49 50 51 52 53 55 55 56 57 59 60 61 62 62 62 62 61 61 61 61 60
21 23 24 24 24 25 26 27 28 29 30 32 34 35 37 38 40 42 43 45 46 47 49 50 51 52 54 55 55 56 57 58 58 58 58 58 58 58 57 56 57 57 57
22 23 24 23 24 25 26 28 29 31 32 33 35 37 38 39 41 42 43 45 46 47 48 49 50 51 52 53 53 53 54 54 54 54 53 52 52 53 53 52 52 52 51
24 24 25 25 25 26 27 29 30 31 33 34 36 37 38 40 41 42 43 44 44 45 46 46 47 48 48 49 49 49 50 49 48 47 46 45 45 45 45 45 44 45 44
25 26 26 27 27 28 29 30 31 32 33 34 36 37 38 39 40 41 41 41 42 42 42 43 43 44 44 44 45 44 43 41 40 40 39 37 36 36 36 35 35 35 35
25 25 26 26 27 28 29 30 30 31 33 34 35 36 37 37 37 38 38 39 39 39 39 39 40 40 40 40 39 38 36 34 33 33 33 31 30 30 29 29 30 30 30
24 24 25 26 27 27 28 28 29 31 32 33 34 34 34 34 34 36 36 35 35 35 35 35 35 35 35 34 33 31 30 29 29 29 28 27 27 27 27 27 27 27 26
24 25 25 26 26 26 27 28 28 29 30 30 30 30 30 30 30 29 29 29 29 28 28 29 29 28 28 27 27 26 26 25 24 24 23 23 23 23 23 23 23 22 22
23 23 24 24 25 25 25 26 27 26 25 25 25 25 25 25 25 25 24 24 24 25 25 25 24 24 24 24 23 22 21 21 19 19 20 20 19 18 18 18 18 18 19
22 23 23 23 23 23 23 23 23 22 22 23 23 23 23 22 22 22 22 22 22 22 22 22 21 21 21 21 20 19 18 17 16 15 15 15 15 15 14 14 15 16 17
21 21 21 21 21 21 21 21 20 20 20 20 20 20 20 19 20 20 20 20 20 19 19 20 19 19 19 19 18 16 15 14 13 12 12 12 12 12 13 13 14 16 16
Wind_Direction
230 230 230 230 229 228 230 233 237 240 243 246 249 254 260 265 268 270 274 278 281 281 281 279 278 276 276 276 276 274 273 274 274 271 272 272 272 271 270 270 270 269 269
230 231 232 232 232 232 234 237 239 241 244 246 249 253 258 265 268 269 272 277 280 281 280 277 276 276 277 277 277 275 274 274 275 272 272 273 273 272 271 271 271 270 270
231 233 234 234 236 236 238 240 242 244 245 248 251 254 258 263 268 270 272 276 278 279 279 277 276 275 277 276 277 277 275 274 274 274 274 274 274 273 272 272 272 271 271
233 235 236 236 238 240 241 243 245 246 249 250 252 256 261 264 267 271 273 274 275 276 276 276 276 277 277 276 276 275 274 274 274 274 274 273 273 273 273 273 273 272 272
237 237 238 239 242 242 243 245 246 248 250 252 254 258 262 264 267 271 273 274 275 275 275 275 276 277 276 275 274 275 275 275 274 274 274 272 272 273 274 275 274 273 273
240 239 240 242 244 244 245 248 249 251 252 254 257 260 263 266 268 269 272 274 274 274 275 274 274 275 275 275 273 274 275 275 275 275 274 272 271 272 273 275 276 274 273
244 243 242 244 246 246 248 251 252 254 256 257 260 261 264 267 269 271 272 275 274 273 273 274 274 274 275 275 274 275 275 274 273 272 272 273 272 273 274 274 275 274 274
243 243 243 245 247 248 250 253 255 256 258 260 261 262 263 267 270 272 273 274 274 273 272 273 273 275 276 276 275 275 276 275 273 273 273 273 273 273 273 274 274 274 274
245 245 245 247 249 250 252 254 257 258 260 261 262 263 264 267 270 272 273 274 274 274 274 274 274 274 275 275 276 276 277 275 274 274 274 273 273 273 273 273 274 274 275
246 245 246 246 248 250 252 255 257 260 261 261 262 265 268 269 270 273 273 274 274 274 275 274 273 273 274 275 277 277 277 276 275 274 274 274 274 274 275 274 274 274 275
246 247 246 246 249 252 255 256 258 259 262 262 264 266 268 269 272 273 271 273 274 274 273 273 273 274 275 276 277 277 277 277 277 275 275 275 275 275 275 273 273 274 275
249 249 247 248 250 253 255 257 260 260 261 262 263 264 266 269 272 273 274 273 273 273 273 274 275 275 276 276 277 277 277 277 277 276 276 276 276 276 275 273 274 274 275
252 250 247 249 251 253 255 258 260 259 259 261 262 264 267 270 272 273 274 274 274 274 274 275 275 275 276 277 277 277 277 277 276 277 276 276 276 276 275 274 274 276 275
253 252 249 249 252 253 257 258 256 256 259 262 264 266 268 271 271 272 274 275 275 276 276 276 276 277 277 277 277 277 277 277 278 278 277 277 276 276 276 275 275 275 273
255 254 254 256 256 258 259 258 257 258 261 263 266 268 271 272 273 275 276 277 277 278 278 278 279 279 279 279 279 279 278 278 279 279 278 278 278 277 276 275 274 273 273
257 255 257 259 258 257 257 257 259 261 263 265 268 271 272 274 275 276 277 278 279 280 281 281 281 281 281 281 281 281 280 280 280 280 280 279 278 277 277 275 274 275 276
257 255 255 257 258 259 259 260 262 264 266 268 270 272 274 276 278 279 281 282 282 283 283 283 283 283 283 283 283 283 283 283 282 282 282 281 279 279 278 276 276 276 277
257 259 258 259 260 261 261 263 265 266 269 271 274 276 278 279 280 281 282 283 283 283 284 284 285 285 285 286 286 286 286 286 285 284 283 282 282 281 280 280 279 279 280
256 258 259 260 262 263 265 266 268 271 273 275 277 279 280 281 282 283 284 284 285 285 286 287 287 288 288 289 289 289 288 288 287 287 287 286 286 286 285 284 284 284 285
257 258 259 261 264 266 268 270 272 274 276 278 280 281 282 283 284 285 285 286 286 287 289 290 291 292 292 293 292 292 291 291 291 291 291 291 290 290 289 289 289 289 289
259 259 260 261 265 267 269 272 274 277 279 281 282 283 284 285 286 287 287 288 289 290 291 293 294 295 295 296 295 295 295 295 295 294 293 293 294 294 293 292 294 295 295
260 260 262 265 268 271 273 275 278 280 282 283 285 285 286 287 288 289 290 291 292 293 295 296 298 299 299 300 300 299 299 299 297 296 296 296 297 296 295 296 299 300 301
262 264 266 268 270 273 276 278 281 283 285 286 287 288 290 291 293 294 295 296 298 300 302 303 304 304 304 304 305 304 304 304 303 303 303 302 301 301 300 301 303 304 305
264 266 267 269 273 276 278 281 284 286 287 289 290 292 293 296 297 300 302 304 306 307 309 309 309 309 309 310 312 312 311 313 311 307 307 308 309 308 308 310 311 312 313
265 266 268 271 273 277 280 283 285 286 288 290 292 294 297 299 301 305 307 309 310 312 313 315 315 313 313 315 316 317 317 316 315 314 312 314 316 317 319 320 322 323 324
264 266 267 270 274 278 281 283 285 286 289 292 295 298 300 303 305 307 310 311 313 315 317 318 319 319 319 320 321 323 323 322 323 323 324 325 327 329 332 334 334 334 335
Height
5872 5874 5875 5877 5878 5879 5880 5881 5882 5883 5883 5884 5884 5884 5884 5884 5884 5884 5883 5883 5882 5881 5880 5879 5878 5878 5877 5877 5876 5876 5876 5875 5875 5875 5874 5874 5873 5873 5872 5872 5871 5871 5870
5868 5870 5871 5873 5874 5876 5877 5878 5879 5879 5880 5880 5880 5881 5881 5881 5880 5880 5879 5879 5878 5877 5876 5875 5875 5874 5873 5873 5872 5872 5871 5871 5870 5870 5869 5869 5868 5868 5867 5866 5866 5865 5864
5864 5866 5867 5869 5870 5872 5873 5874 5875 5876 5876 5876 5877 5877 5877 5876 5876 5876 5875 5874 5874 5873 5872 5871 5870 5870 5869 5868 5867 5867 5866 5865 5865 5864 5864 5863 5862 5861 5860 5860 5859 5858 5858
5860 5861 5863 5865 5866 5867 5869 5870 5871 5871 5872 5872 5873 5873 5873 5872 5872 5871 5871 5870 5869 5868 5868 5867 5866 5865 5864 5863 5862 5861 5860 5859 5859 5858 5857 5856 5855 5854 5853 5852 5851 5851 5850
5855 5857 5859 5860 5861 5863 5864 5865 5866 5867 5867 5868 5868 5868 5868 5867 5867 5866 5866 5865 5864 5863 5862 5862 5861 5860 5859 5858 5857 5856 5855 5853 5852 5851 5850 5849 5848 5847 5846 5844 5843 5842 5841
5850 5852 5854 5855 5856 5858 5859 5860 5861 5862 5862 5863 5863 5863 5863 5862 5861 5861 5860 5859 5858 5858 5857 5856 5855 5854 5853 5852 5851 5849 5848 5847 5845 5844 5842 5841 5840 5839 5837 5836 5834 5832 5831
5845 5847 5848 5850 5851 5853 5854 5855 5856 5856 5857 5857 5857 5857 5857 5856 5856 5855 5854 5853 5852 5851 5850 5849 5848 5847 5846 5845 5844 5842 5841 5839 5838 5836 5834 5833 5831 5829 5828 5826 5824 5822 5820
5839 5841 5842 5844 5845 5846 5848 5849 5849 5850 5850 5851 5851 5851 5851 5851 5850 5849 5847 5846 5845 5844 5843 5842 5841 5839 5838 5837 5836 5834 5833 5831 5829 5827 5825 5823 5821 5819 5817 5815 5813 5811 5808
5832 5834 5835 5837 5838 5840 5841 5842 5843 5843 5844 5844 5844 5845 5844 5844 5843 5842 5840 5839 5837 5837 5836 5835 5833 5832 5830 5828 5827 5825 5824 5822 5820 5818 5815 5813 5811 5809 5806 5804 5802 5799 5796
5825 5826 5828 5829 5831 5832 5834 5835 5836 5836 5836 5837 5837 5837 5837 5836 5835 5835 5834 5831 5830 5829 5828 5826 5825 5823 5821 5820 5818 5816 5814 5812 5809 5807 5804 5802 5800 5797 5795 5792 5790 5787 5784
5817 5819 5820 5822 5823 5825 5826 5827 5828 5828 5829 5829 5829 5829 5829 5828 5827 5826 5826 5824 5822 5821 5819 5818 5816 5814 5812 5810 5808 5806 5803 5801 5798 5795 5792 5790 5787 5785 5782 5779 5777 5774 5771
5810 5811 5812 5814 5816 5817 5818 5819 5820 5820 5820 5821 5821 5821 5820 5820 5819 5818 5816 5815 5814 5812 5810 5808 5806 5804 5802 5799 5797 5794 5791 5789 5786 5782 5779 5777 5774 5771 5768 5765 5763 5759 5756
5802 5803 5805 5807 5808 5809 5810 5811 5812 5812 5813 5813 5813 5812 5812 5811 5811 5809 5808 5806 5804 5803 5800 5798 5796 5793 5791 5788 5785 5782 5779 5775 5772 5769 5766 5762 5759 5756 5753 5750 5747 5744 5741
5795 5796 5798 5799 5801 5801 5802 5803 5804 5804 5805 5805 5805 5804 5804 5803 5802 5800 5798 5796 5794 5792 5789 5787 5784 5781 5778 5775 5772 5768 5765 5761 5758 5754 5751 5747 5744 5741 5737 5735 5731 5728 5725
5789 5790 5792 5793 5793 5794 5795 5796 5796 5797 5797 5797 5796 5796 5795 5794 5792 5790 5788 5786 5784 5780 5778 5775 5772 5769 5765 5762 5758 5754 5750 5746 5742 5738 5734 5731 5727 5724 5721 5718 5715 5712 5709
5784 5785 5786 5786 5787 5787 5788 5789 5789 5789 5789 5789 5788 5787 5786 5784 5782 5780 5777 5775 5772 5769 5765 5762 5759 5755 5751 5747 5743 5739 5735 5731 5727 5722 5718 5714 5710 5707 5704 5701 5698 5695 5692
5778 5779 5780 5780 5780 5780 5781 5781 5781 5781 5781 5780 5779 5777 5776 5774 5772 5769 5767 5763 5760 5757 5753 5749 5746 5741 5737 5733 5729 5724 5720 5715 5711 5707 5702 5698 5694 5691 5687 5685 5682 5679 5676
5772 5773 5773 5774 5774 5774 5774 5774 5774 5773 5772 5771 5769 5768 5766 5764 5761 5758 5755 5752 5748 5745 5741 5737 5732 5728 5724 5719 5715 5710 5705 5700 5696 5692 5687 5683 5680 5676 5673 5671 5668 5665 5662
5766 5766 5767 5767 5767 5767 5766 5766 5765 5764 5763 5762 5760 5758 5756 5753 5751 5747 5744 5740 5737 5733 5729 5724 5720 5716 5711 5706 5701 5697 5691 5687 5682 5678 5674 5670 5667 5663 5660 5658 5655 5653 5651
5759 5759 5759 5759 5759 5759 5758 5758 5757 5756 5754 5752 5750 5748 5745 5743 5740 5736 5733 5729 5726 5722 5717 5713 5709 5704 5699 5694 5690 5685 5680 5675 5671 5667 5663 5660 5656 5654 5651 5649 5646 5644 5641
5751 5752 5752 5752 5752 5751 5751 5749 5748 5747 5745 5743 5741 5738 5735 5732 5729 5726 5723 5719 5715 5711 5707 5703 5698 5694 5689 5684 5679 5674 5670 5666 5662 5659 5655 5652 5649 5647 5644 5641 5639 5636 5634
5744 5744 5745 5744 5744 5744 5743 5742 5740 5739 5737 5734 5732 5729 5726 5723 5719 5716 5712 5709 5705 5701 5697 5693 5689 5684 5680 5675 5671 5666 5662 5659 5656 5652 5649 5646 5643 5640 5638 5635 5632 5630 5627
5737 5737 5737 5737 5737 5736 5735 5734 5732 5730 5728 5725 5723 5720 5717 5714 5710 5707 5703 5700 5696 5692 5689 5685 5681 5676 5672 5668 5664 5660 5656 5653 5650 5646 5644 5641 5638 5635 5632 5630 5627 5624 5621
5730 5730 5730 5730 5729 5729 5727 5726 5724 5722 5720 5718 5715 5712 5709 5706 5703 5700 5696 5693 5689 5686 5683 5679 5675 5671 5667 5663 5659 5656 5652 5648 5645 5642 5639 5637 5634 5631 5629 5626 5623 5620 5617
5723 5724 5724 5723 5723 5722 5721 5719 5717 5716 5714 5712 5709 5706 5703 5700 5697 5694 5691 5687 5684 5681 5677 5674 5670 5666 5663 5659 5656 5652 5649 5646 5643 5640 5637 5634 5632 5629 5626 5623 5621 5618 5614
5717 5717 5717 5717 5717 5716 5714 5713 5711 5710 5708 5706 5703 5700 5697 5695 5692 5689 5686 5683 5680 5677 5673 5670 5666 5663 5659 5656 5653 5649 5646 5644 5641 5638 5635 5633 5630 5628 5625 5622 5619 5616 5612